Torna al catalogo

STARLINK-33560

AttivoComunicazioniVLEO
NORAD 62282·PAYLOAD·🇺🇸 United States

Lanciato Dec 8, 2024 da Cape Canaveral Space Force Station

Loading…

Prossimi Passaggi (prossime 24 ore)

TLE

AggiornatoSource: CelesTrak SupGP

Epoca: Sep 14, 2026, 21:30 UTC

1 62282C 24237R   26257.89631944  .00028950  00000+0  10485-2 0  2574
2 62282  43.0001 227.8182 0001329 261.9278 278.2488 15.27566620    10

Traccia STARLINK-33560 in tempo reale con AllMySat

Download on the App Store